Simultaneous Nadir Overpasses (SNOs) Predictions

Prediction of SNOs between GOES-17 and TERRA Satellite Orbit:

Table of predicted SNOs for the next 14.0 days since TLE Epoch: 8/3/2024
Index Date Time (GOES-17) GOES-17 Lat,Lon TERRA Lat,Lon Distance(km) Time Diff (sec)
1 08/04/2024 04:35:26 -0.00,-104.67 0.28,-103.21 165.30 80
2 08/04/2024 16:57:59 0.01,-104.71 0.70,-108.05 379.84 80
3 08/06/2024 16:37:43 0.00,-104.72 -0.18,-103.81 103.76 80
4 08/07/2024 05:00:23 -0.01,-104.69 -0.86,-108.67 452.19 80
5 08/09/2024 04:40:07 -0.00,-104.71 0.05,-104.42 31.93 80
6 08/11/2024 16:45:02 0.01,-104.76 0.07,-105.01 28.52 80
7 08/13/2024 16:24:45 0.01,-104.77 -0.84,-100.76 455.76 80
8 08/14/2024 04:47:25 -0.01,-104.74 -0.18,-105.63 100.19 80
9 08/16/2024 04:27:07 -0.01,-104.75 0.70,-101.37 383.75 80
10 08/16/2024 16:49:38 0.02,-104.78 0.33,-106.20 161.04 80
